User: anonymous   Login
Location: *
(90.0000°N, 180.0000°W)
Time: 17:33:04
(UTC+01:00)
Language:

Cosmos 1825 - Orbit

View from above orbital plane
View from above orbital plane
View from above satellite
View from above satellite

Ground track
Ground track

The orbit data is extracted from the following two-line orbital elements,

1 17566U 87024A   15061.87215571  .00008932  00000-0  47775-3 0  9990
2 17566 082.5052 038.5424 0002551 219.9346 140.1699 15.14935529526874
Epoch (UTC): 02 March 2015 20:55:54
Eccentricity: 0.0002551
inclination: 82.5052°
perigee height: 519 km
apogee height: 523 km
right ascension of ascending node: 38.5424°
argument of perigee: 219.9346°
revolutions per day: 15.14935529
mean anomaly at epoch: 140.1699°
orbit number at epoch: 52687

The dashed part of the orbit path shows where the satellite is in the earth's shadow,  

DLR